User: anonymous   Login
Location: Unspecified
(0.0000°N, 0.0000°E)
Time: 06:09:16
(UTC+00:00)
Language:

NOSS 3-4 (C) - Orbit

View from above orbital plane
View from above orbital plane
View from above satellite
View from above satellite

Ground track
Ground track

The orbit data is extracted from the following two-line orbital elements,

1 31708U 07027C   17288.99754103 0.00000000  00000-0  00000-0 0    02
2 31708  63.4031 135.6079 0199000  22.7557 337.2443 13.40735899    01
Epoch (UTC): 15 October 2017 23:56:27
Eccentricity: 0.0199000
inclination: 63.4031°
perigee height: 957 km
apogee height: 1255 km
right ascension of ascending node: 135.6079°
argument of perigee: 22.7557°
revolutions per day: 13.40735899
mean anomaly at epoch: 337.2443°
orbit number at epoch: 0

The dashed part of the orbit path shows where the satellite is in the earth's shadow,  

DLR